Palmer, AK

6:08 PM AKDT on April 26, 2018 (GMT -0800)
Palmer Municipal

Weather History for PAAQ - March, 2014

Change the Weather History Date:

Monday, March 10, 2014

  Actual Average Record
Temperature  
Mean Temperature 24 °F -  
Max Temperature 41 °F 33 °F 51 °F (1968)
Min Temperature 10 °F 13 °F -17 °F (1959)
Degree Days  
Heating Degree Days 40    
Moisture  
Dew Point 18 °F    
Average Humidity 62    
Maximum Humidity 87    
Minimum Humidity 44    
Precipitation  
Precipitation 0.02 in - - ()
Sea Level Pressure  
Sea Level Pressure 29.25 in    
Wind  
Wind Speed 10 mph (ENE)    
Max Wind Speed 24 mph    
Max Gust Speed 36 mph    
Visibility 10 miles    
Events Rain    
Averages and records for this station are not official NWS values.
T = Trace of Precipitation, MM = Missing Value Source: NWS Daily Summary

Daily Weather History Graph

Daily Weather History Graph

Search for Another Location

Airport or City:

Astronomy

Mar. 10, 2014 Rise Set
Actual Time 8:28 AM AKDT 7:45 PM AKDT
Civil Twilight 7:45 AM AKDT 8:29 PM AKDT
Nautical Twilight 6:54 AM AKDT 9:20 PM AKDT
Astronomical Twilight 6:00 AM AKDT 10:14 PM AKDT
Moon 1:26 PM AKDT (3/10) 6:00 AM AKDT (3/10)
Length of Visible Light 12h 43m
Length of Day
11h 16m
Waxing Gibbous, 71% of the Moon is Illuminated
Mar 10
Waxing Gibbous
Mar 16
Full
Mar 23
Last Quarter
Mar 30
New
Apr 7
First Quarter

Hourly Weather History & Observations

Time (AKDT) Temp. Windchill Dew Point Humidity Pressure Visibility Wind Dir Wind Speed Gust Speed Precip Events Conditions
12:53 AM 10.9 °F 4.7 °F 3.0 °F 70% 29.47 in 10.0 mi East 3.5 mph - N/A   Partly Cloudy
1:53 AM 14.0 °F - 5.0 °F 67% 29.49 in 10.0 mi Calm Calm - N/A   Overcast
2:53 AM 17.1 °F 11.7 °F 3.0 °F 54% 29.50 in 10.0 mi ENE 3.5 mph - N/A   Overcast
3:53 AM 18.0 °F 7.7 °F 3.9 °F 54% 29.48 in 10.0 mi NNE 8.1 mph - N/A   Overcast
4:53 AM 19.9 °F 7.9 °F 5.0 °F 52% 29.46 in 10.0 mi North 11.5 mph - N/A   Overcast
5:53 AM 19.9 °F 5.7 °F 6.1 °F 55% 29.46 in 10.0 mi North 16.1 mph - N/A   Overcast
6:53 AM 21.0 °F 7.6 °F 6.1 °F 53% 29.44 in 10.0 mi North 15.0 mph - N/A   Overcast
7:53 AM 21.9 °F 7.3 °F 6.1 °F 51% 29.42 in 10.0 mi North 18.4 mph 21.9 mph N/A   Overcast
8:53 AM 21.9 °F 7.8 °F 7.0 °F 53% 29.40 in 10.0 mi North 17.3 mph - N/A   Overcast
9:53 AM 26.1 °F 13.1 °F 9.0 °F 49% 29.36 in 10.0 mi NNW 17.3 mph 23.0 mph N/A   Overcast
10:53 AM 28.0 °F 17.0 °F 10.0 °F 47% 29.34 in 10.0 mi North 13.8 mph 24.2 mph N/A   Overcast
11:53 AM 32.0 °F 24.2 °F 12.0 °F 44% 29.32 in 10.0 mi NNW 9.2 mph - N/A   Overcast
12:53 PM 32.0 °F 23.0 °F 12.9 °F 45% 29.29 in 10.0 mi North 11.5 mph 23.0 mph N/A   Overcast
1:28 PM 39.2 °F 33.0 °F 24.8 °F 56% 29.26 in 10.0 mi ENE 9.2 mph 23.0 mph N/A   Overcast
1:53 PM 39.0 °F 29.6 °F 25.0 °F 57% 29.26 in 10.0 mi SE 18.4 mph 25.3 mph N/A   Overcast
2:53 PM 39.9 °F 30.5 °F 25.0 °F 55% 29.24 in 10.0 mi ESE 19.6 mph 32.2 mph N/A   Overcast
3:53 PM 39.0 °F 34.0 °F 19.0 °F 45% 29.19 in 10.0 mi Variable 6.9 mph - N/A   Overcast
4:53 PM 39.0 °F 34.8 °F 21.0 °F 49% 29.16 in 10.0 mi Variable 5.8 mph - N/A   Overcast
5:18 PM 37.4 °F 29.3 °F 28.4 °F 70% 29.12 in 10.0 mi ESE 12.7 mph 25.3 mph 0.00 in   Overcast
5:53 PM 37.9 °F 32.1 °F 28.9 °F 70% 29.11 in 10.0 mi SE 8.1 mph - 0.00 in   Overcast
6:53 PM 37.0 °F 28.1 °F 28.9 °F 73% 29.07 in 10.0 mi ESE 15.0 mph 27.6 mph 0.00 in Rain Light Rain
7:53 PM 37.0 °F 29.3 °F 30.0 °F 76% 29.03 in 10.0 mi East 11.5 mph 32.2 mph 0.00 in Rain Light Rain
8:53 PM 37.0 °F 30.4 °F 30.9 °F 79% 29.00 in 10.0 mi ENE 9.2 mph 19.6 mph 0.00 in Rain Light Rain
9:53 PM 37.0 °F 26.7 °F 30.9 °F 79% 29.00 in 10.0 mi ESE 19.6 mph 25.3 mph 0.00 in Rain Light Rain
10:12 PM 35.6 °F 24.0 °F 32.0 °F 87% 28.98 in 9.0 mi ESE 23.0 mph 35.7 mph 0.01 in Rain Light Rain
10:53 PM 36.0 °F 24.2 °F 32.0 °F 86% 29.05 in 10.0 mi ESE 24.2 mph 34.5 mph 0.02 in Rain Light Rain
11:08 PM 35.6 °F 25.5 °F 32.0 °F 87% 29.04 in 10.0 mi ESE 17.3 mph 24.2 mph 0.00 in   Scattered Clouds
11:53 PM 37.0 °F 26.7 °F 30.9 °F 79% 29.06 in 10.0 mi ESE 19.6 mph 32.2 mph 0.00 in   Partly Cloudy